| time (UTC) | temp F | wind direction | speed MPH | gust MPH | rain 1hr in | rain 24hr in | rain mn in | humidity % | barometer mb |
| 20260505163500 | 79 | 222 | 3.0 | 11.0 | 0.00 | 0.00 | 0.00 | 72 | 1004.9 |
| 20260505163004 | 79 | 222 | 3.0 | 14.0 | 0.00 | 0.00 | 0.00 | 72 | 1004.7 |
| 20260505162500 | 79 | 214 | 4.0 | 14.0 | 0.00 | 0.00 | 0.00 | 72 | 1004.8 |
| 20260505161000 | 78 | 212 | 2.0 | 17.0 | 0.00 | 0.00 | 0.00 | 73 | 1004.7 |
| 20260505160500 | 78 | 179 | 6.0 | 16.0 | 0.00 | 0.00 | 0.00 | 72 | 1004.5 |
| 20260505153005 | 77 | 250 | 4.0 | 16.0 | 0.00 | 0.00 | 0.00 | 74 | 1004.4 |
| 20260505152500 | 77 | 200 | 4.0 | 13.0 | 0.00 | 0.00 | 0.00 | 75 | 1004.4 |
| 20260505152000 | 77 | 232 | 5.0 | 13.0 | 0.00 | 0.00 | 0.00 | 75 | 1004.3 |
| 20260505151000 | 76 | 249 | 2.0 | 12.0 | 0.00 | 0.00 | 0.00 | 77 | 1004.4 |
| 20260505150500 | 76 | 237 | 5.0 | 13.0 | 0.00 | 0.00 | 0.00 | 76 | 1004.5 |
| 20260505140500 | 74 | 198 | 2.0 | 9.0 | 0.00 | 0.00 | 0.00 | 80 | 1004.5 |
| 20260505125001 | 72 | 215 | 4.0 | 15.0 | 0.00 | 0.00 | 0.00 | 83 | 1004.2 |
| 20260505124502 | 72 | 222 | 5.0 | 11.0 | 0.00 | 0.00 | 0.00 | 83 | 1004.0 |
| 20260505123959 | 72 | 236 | 4.0 | 14.0 | 0.00 | 0.00 | 0.00 | 83 | 1003.8 |
| 20260505123459 | 72 | 205 | 4.0 | 14.0 | 0.00 | 0.00 | 0.00 | 83 | 1003.8 |
| 20260505121959 | 72 | 190 | 4.0 | 13.0 | 0.00 | 0.00 | 0.00 | 83 | 1003.6 |
| 20260505121502 | 72 | 199 | 4.0 | 15.0 | 0.00 | 0.00 | 0.00 | 83 | 1003.6 |
| 20260505120005 | 72 | 246 | 6.0 | 13.0 | 0.00 | 0.00 | 0.00 | 83 | 1003.6 |
| 20260505115458 | 72 | 253 | 5.0 | 13.0 | 0.00 | 0.00 | 0.00 | 83 | 1003.5 |
| 20260505114959 | 72 | 230 | 2.0 | 14.0 | 0.00 | 0.00 | 0.00 | 82 | 1003.5 |
| 20260505114509 | 72 | 186 | 3.0 | 19.0 | 0.00 | 0.00 | 0.00 | 82 | 1003.5 |
| 20260505114000 | 72 | 210 | 5.0 | 12.0 | 0.00 | 0.00 | 0.00 | 82 | 1003.4 |
| 20260505113500 | 72 | 233 | 6.0 | 20.0 | 0.00 | 0.00 | 0.00 | 82 | 1003.3 |
| 20260505113003 | 72 | 202 | 6.0 | 20.0 | 0.00 | 0.00 | 0.00 | 82 | 1003.3 |
| 20260505111959 | 72 | 250 | 8.0 | 14.0 | 0.00 | 0.00 | 0.00 | 82 | 1003.3 |
| 20260505111502 | 71 | 194 | 5.0 | 14.0 | 0.00 | 0.00 | 0.00 | 82 | 1003.4 |
| 20260505110959 | 72 | 237 | 3.0 | 14.0 | 0.00 | 0.00 | 0.00 | 82 | 1003.4 |
| 20260505110500 | 72 | 217 | 3.0 | 12.0 | 0.00 | 0.00 | 0.00 | 82 | 1003.4 |
| 20260505101959 | 72 | 210 | 3.0 | 11.0 | 0.00 | 0.00 | 0.00 | 81 | 1003.5 |
| 20260505100959 | 72 | 196 | 4.0 | 14.0 | 0.00 | 0.00 | 0.00 | 81 | 1003.3 |
| 20260505100459 | 72 | 219 | 3.0 | 11.0 | 0.00 | 0.00 | 0.00 | 80 | 1003.3 |
| 20260505100004 | 72 | 182 | 4.0 | 15.0 | 0.00 | 0.00 | 0.00 | 81 | 1003.3 |
| 20260505094959 | 72 | 203 | 4.0 | 16.0 | 0.00 | 0.00 | 0.00 | 80 | 1003.4 |
| 20260505094505 | 73 | 199 | 4.0 | 10.0 | 0.00 | 0.00 | 0.00 | 80 | 1003.4 |
| 20260505093959 | 73 | 232 | 4.0 | 11.0 | 0.00 | 0.00 | 0.00 | 80 | 1003.4 |
| 20260505093001 | 73 | 163 | 2.0 | 9.0 | 0.00 | 0.00 | 0.00 | 80 | 1003.6 |
| 20260505091959 | 73 | 211 | 3.0 | 15.0 | 0.00 | 0.00 | 0.00 | 79 | 1003.7 |
| 20260505090958 | 73 | 215 | 5.0 | 16.0 | 0.00 | 0.00 | 0.00 | 79 | 1003.8 |
| 20260505090458 | 73 | 190 | 3.0 | 16.0 | 0.00 | 0.00 | 0.00 | 79 | 1003.9 |
| 20260505090009 | 73 | 210 | 3.0 | 10.0 | 0.00 | 0.00 | 0.00 | 79 | 1003.8 |
| 20260505084501 | 73 | 231 | 3.0 | 12.0 | 0.00 | 0.00 | 0.00 | 78 | 1003.8 |
| 20260505083958 | 73 | 230 | 4.0 | 12.0 | 0.00 | 0.00 | 0.00 | 78 | 1003.9 |
| 20260505083458 | 73 | 230 | 3.0 | 14.0 | 0.00 | 0.00 | 0.00 | 78 | 1003.9 |
| 20260505083002 | 73 | 202 | 4.0 | 13.0 | 0.00 | 0.00 | 0.00 | 77 | 1003.9 |
| 20260505082459 | 73 | 165 | 3.0 | 16.0 | 0.00 | 0.00 | 0.00 | 77 | 1003.8 |
| 20260505081501 | 74 | 167 | 2.0 | 13.0 | 0.00 | 0.00 | 0.00 | 76 | 1003.9 |
| 20260505080958 | 74 | 227 | 2.0 | 13.0 | 0.00 | 0.00 | 0.00 | 76 | 1003.9 |
| 20260505080458 | 74 | 198 | 5.0 | 13.0 | 0.00 | 0.00 | 0.00 | 76 | 1003.9 |
| 20260505080004 | 74 | 163 | 2.0 | 10.0 | 0.00 | 0.00 | 0.00 | 75 | 1004.0 |
| 20260505075458 | 74 | 229 | 1.0 | 14.0 | 0.00 | 0.00 | 0.00 | 75 | 1004.0 |
| 20260505074958 | 74 | 217 | 4.0 | 14.0 | 0.00 | 0.00 | 0.00 | 75 | 1004.1 |
| 20260505074501 | 74 | 114 | 2.0 | 12.0 | 0.00 | 0.00 | 0.00 | 75 | 1004.2 |
| 20260505073958 | 74 | 191 | 3.0 | 11.0 | 0.00 | 0.00 | 0.00 | 75 | 1004.3 |
| 20260505073458 | 74 | 211 | 3.0 | 11.0 | 0.00 | 0.00 | 0.00 | 74 | 1004.4 |
| 20260505071958 | 74 | 215 | 5.0 | 16.0 | 0.00 | 0.00 | 0.00 | 73 | 1004.7 |
| 20260505071501 | 74 | 232 | 3.0 | 14.0 | 0.00 | 0.00 | 0.00 | 73 | 1004.8 |
| 20260505070958 | 75 | 266 | 3.0 | 14.0 | 0.00 | 0.00 | 0.00 | 73 | 1004.8 |
| 20260505070459 | 75 | 200 | 4.0 | 12.0 | 0.00 | 0.00 | 0.00 | 72 | 1004.8 |
| 20260505070003 | 75 | 180 | 3.0 | 12.0 | 0.00 | 0.00 | 0.00 | 72 | 1004.9 |
| 20260505065459 | 75 | 200 | 2.0 | 16.0 | 0.00 | 0.00 | 0.00 | 72 | 1004.9 |
| 20260505064957 | 75 | 186 | 4.0 | 16.0 | 0.00 | 0.00 | 0.00 | 71 | 1005.1 |
| 20260505064501 | 75 | 232 | 4.0 | 13.0 | 0.00 | 0.00 | 0.00 | 71 | 1005.2 |
| 20260505063958 | 75 | 205 | 4.0 | 13.0 | 0.00 | 0.00 | 0.00 | 70 | 1005.3 |
| 20260505063003 | 76 | 196 | 3.0 | 12.0 | 0.00 | 0.00 | 0.00 | 70 | 1005.3 |
| 20260505062458 | 76 | 254 | 5.0 | 12.0 | 0.00 | 0.00 | 0.00 | 69 | 1005.3 |
| 20260505061958 | 76 | 223 | 1.0 | 12.0 | 0.00 | 0.00 | 0.00 | 69 | 1005.4 |
| 20260505061502 | 76 | 242 | 3.0 | 12.0 | 0.00 | 0.00 | 0.00 | 69 | 1005.4 |
| 20260505060010 | 76 | 215 | 4.0 | 10.0 | 0.00 | 0.00 | 0.00 | 69 | 1005.4 |
| 20260505055503 | 76 | 194 | 2.0 | 10.0 | 0.00 | 0.00 | 0.00 | 69 | 1005.5 |
| 20260505055004 | 76 | 211 | 3.0 | 11.0 | 0.00 | 0.00 | 0.00 | 69 | 1005.4 |
| 20260505054507 | 76 | 246 | 3.0 | 11.0 | 0.00 | 0.00 | 0.00 | 69 | 1005.2 |
| 20260505054005 | 76 | 184 | 1.0 | 10.0 | 0.00 | 0.00 | 0.00 | 69 | 1005.3 |
| 20260505053504 | 76 | 152 | 4.0 | 12.0 | 0.00 | 0.00 | 0.00 | 69 | 1005.3 |
| 20260505053007 | 76 | 193 | 3.0 | 12.0 | 0.00 | 0.00 | 0.00 | 69 | 1005.4 |
| 20260505052504 | 76 | 220 | 2.0 | 11.0 | 0.00 | 0.00 | 0.00 | 69 | 1005.3 |
| 20260505052004 | 76 | 198 | 4.0 | 11.0 | 0.00 | 0.00 | 0.00 | 69 | 1005.4 |
| 20260505051519 | 76 | 223 | 2.0 | 11.0 | 0.00 | 0.00 | 0.00 | 69 | 1005.5 |
| 20260505051004 | 76 | 221 | 1.0 | 11.0 | 0.00 | 0.00 | 0.00 | 69 | 1005.6 |
| 20260505050504 | 76 | 201 | 2.0 | 15.0 | 0.00 | 0.00 | 0.00 | 69 | 1005.5 |
| 20260505041508 | 76 | 171 | 2.0 | 14.0 | 0.00 | 0.00 | 0.00 | 68 | 1005.6 |
| 20260505041003 | 76 | 214 | 4.0 | 14.0 | 0.00 | 0.00 | 0.00 | 68 | 1005.6 |
| 20260505040504 | 76 | 223 | 4.0 | 15.0 | 0.00 | 0.00 | 0.00 | 68 | 1005.7 |
| 20260505040008 | 76 | 223 | 4.0 | 15.0 | 0.00 | 0.00 | 0.00 | 68 | 1005.7 |
| 20260505035503 | 76 | 182 | 3.0 | 11.0 | 0.00 | 0.00 | 0.00 | 68 | 1005.7 |
| 20260505035002 | 76 | 215 | 3.0 | 12.0 | 0.00 | 0.00 | 0.00 | 68 | 1005.7 |
| 20260505034505 | 76 | 222 | 5.0 | 14.0 | 0.00 | 0.00 | 0.00 | 68 | 1005.7 |
| 20260505034002 | 76 | 155 | 4.0 | 14.0 | 0.00 | 0.00 | 0.00 | 68 | 1005.7 |
| 20260505033504 | 76 | 222 | 3.0 | 9.0 | 0.00 | 0.00 | 0.00 | 68 | 1005.7 |
| 20260505033006 | 76 | 154 | 2.0 | 14.0 | 0.00 | 0.00 | 0.00 | 68 | 1005.7 |
| 20260505032503 | 76 | 167 | 2.0 | 14.0 | 0.00 | 0.00 | 0.00 | 67 | 1005.6 |
| 20260505032003 | 76 | 142 | 2.0 | 13.0 | 0.00 | 0.00 | 0.00 | 67 | 1005.6 |
| 20260505031519 | 76 | 122 | 2.0 | 10.0 | 0.00 | 0.00 | 0.00 | 68 | 1005.8 |
| 20260505031004 | 76 | 183 | 3.0 | 10.0 | 0.00 | 0.00 | 0.00 | 67 | 1005.8 |
| 20260505030503 | 76 | 226 | 4.0 | 17.0 | 0.00 | 0.00 | 0.00 | 67 | 1005.7 |
| 20260505030008 | 76 | 209 | 4.0 | 17.0 | 0.00 | 0.00 | 0.00 | 67 | 1005.7 |
| 20260505025002 | 76 | 98 | 3.0 | 11.0 | 0.00 | 0.00 | 0.00 | 66 | 1005.7 |
| 20260505024506 | 76 | 214 | 2.0 | 10.0 | 0.00 | 0.00 | 0.00 | 66 | 1005.8 |
| 20260505024002 | 76 | 158 | 4.0 | 10.0 | 0.00 | 0.00 | 0.00 | 66 | 1005.8 |
| 20260505023503 | 76 | 134 | 1.0 | 8.0 | 0.00 | 0.00 | 0.00 | 66 | 1005.7 |
| 20260505022503 | 76 | 227 | 4.0 | 15.0 | 0.00 | 0.00 | 0.00 | 66 | 1005.8 |
| 20260505022007 | 76 | 201 | 4.0 | 15.0 | 0.00 | 0.00 | 0.00 | 66 | 1005.7 |
| 20260505021003 | 77 | 155 | 2.0 | 11.0 | 0.00 | 0.00 | 0.00 | 66 | 1005.6 |
| 20260505020504 | 77 | 200 | 2.0 | 12.0 | 0.00 | 0.00 | 0.00 | 65 | 1005.7 |
| 20260505020011 | 77 | 184 | 2.0 | 11.0 | 0.00 | 0.00 | 0.00 | 65 | 1005.6 |
| 20260505015002 | 77 | 189 | 4.0 | 13.0 | 0.00 | 0.00 | 0.00 | 65 | 1005.6 |
| 20260505014506 | 77 | 130 | 1.0 | 11.0 | 0.00 | 0.00 | 0.00 | 64 | 1005.6 |
| 20260505014002 | 77 | 216 | 4.0 | 12.0 | 0.00 | 0.00 | 0.00 | 64 | 1005.6 |
| 20260505013503 | 77 | 190 | 3.0 | 15.0 | 0.00 | 0.00 | 0.00 | 64 | 1005.6 |
| 20260505013006 | 77 | 244 | 5.0 | 15.0 | 0.00 | 0.00 | 0.00 | 64 | 1005.6 |
| 20260505012502 | 77 | 193 | 5.0 | 16.0 | 0.00 | 0.00 | 0.00 | 64 | 1005.5 |
| 20260505011506 | 78 | 184 | 5.0 | 16.0 | 0.00 | 0.00 | 0.00 | 63 | 1005.6 |
| 20260505011003 | 78 | 196 | 6.0 | 16.0 | 0.00 | 0.00 | 0.00 | 63 | 1005.6 |
| 20260505010502 | 78 | 214 | 3.0 | 16.0 | 0.00 | 0.00 | 0.00 | 62 | 1005.6 |
| 20260505005503 | 78 | 198 | 6.0 | 14.0 | 0.00 | 0.00 | 0.00 | 62 | 1005.6 |
| 20260505005004 | 78 | 171 | 4.0 | 20.0 | 0.00 | 0.00 | 0.00 | 62 | 1005.6 |
| 20260505004505 | 78 | 212 | 7.0 | 20.0 | 0.00 | 0.00 | 0.00 | 62 | 1005.5 |
| 20260505004002 | 78 | 210 | 3.0 | 12.0 | 0.00 | 0.00 | 0.00 | 62 | 1005.6 |
| 20260505003508 | 78 | 212 | 4.0 | 12.0 | 0.00 | 0.00 | 0.00 | 62 | 1005.6 |
| 20260505003008 | 79 | 222 | 3.0 | 17.0 | 0.00 | 0.00 | 0.00 | 62 | 1005.6 |
| 20260505002502 | 79 | 254 | 6.0 | 17.0 | 0.00 | 0.00 | 0.00 | 61 | 1005.7 |
| 20260505002003 | 79 | 196 | 6.0 | 17.0 | 0.00 | 0.00 | 0.00 | 61 | 1005.7 |
| 20260505001506 | 79 | 202 | 4.0 | 19.0 | 0.00 | 0.00 | 0.00 | 61 | 1005.7 |
| 20260505001004 | 79 | 171 | 6.0 | 18.0 | 0.00 | 0.00 | 0.00 | 60 | 1005.9 |
| 20260505000503 | 79 | 286 | 5.0 | 16.0 | 0.00 | 0.00 | 0.00 | 60 | 1005.9 |
| 20260505000007 | 80 | 176 | 6.0 | 16.0 | 0.00 | 0.00 | 0.00 | 60 | 1005.8 |
| 20260504235502 | 80 | 194 | 7.0 | 15.0 | 0.00 | 0.00 | 0.00 | 60 | 1005.8 |
| 20260504235001 | 80 | 170 | 7.0 | 15.0 | 0.00 | 0.00 | 0.00 | 60 | 1005.7 |
| 20260504234001 | 80 | 208 | 7.0 | 18.0 | 0.00 | 0.00 | 0.00 | 59 | 1005.8 |
| 20260504233502 | 80 | 175 | 7.0 | 18.0 | 0.00 | 0.00 | 0.00 | 59 | 1005.9 |
| 20260504232503 | 80 | 199 | 5.0 | 19.0 | 0.00 | 0.00 | 0.00 | 59 | 1005.9 |
| 20260504232001 | 80 | 159 | 6.0 | 18.0 | 0.00 | 0.00 | 0.00 | 59 | 1005.9 |
| 20260504231505 | 80 | 159 | 4.0 | 15.0 | 0.00 | 0.00 | 0.00 | 59 | 1005.8 |
| 20260504231003 | 81 | 232 | 3.0 | 18.0 | 0.00 | 0.00 | 0.00 | 58 | 1005.9 |
| 20260504230501 | 81 | 165 | 4.0 | 23.0 | 0.00 | 0.00 | 0.00 | 58 | 1006.0 |
| 20260504230011 | 81 | 234 | 5.0 | 15.0 | 0.00 | 0.00 | 0.00 | 57 | 1006.2 |
| 20260504225502 | 82 | 202 | 8.0 | 15.0 | 0.00 | 0.00 | 0.00 | 57 | 1006.2 |
| 20260504225002 | 82 | 230 | 7.0 | 15.0 | 0.00 | 0.00 | 0.00 | 57 | 1006.2 |
| 20260504224002 | 82 | 66 | 4.0 | 14.0 | 0.00 | 0.00 | 0.00 | 57 | 1006.2 |
| 20260504223005 | 82 | 233 | 2.0 | 16.0 | 0.00 | 0.00 | 0.00 | 57 | 1006.3 |
| 20260504222001 | 82 | 196 | 7.0 | 15.0 | 0.00 | 0.00 | 0.00 | 56 | 1006.3 |
| 20260504221506 | 82 | 240 | 4.0 | 21.0 | 0.00 | 0.00 | 0.00 | 57 | 1006.3 |
| 20260504221001 | 82 | 144 | 5.0 | 21.0 | 0.00 | 0.00 | 0.00 | 56 | 1006.2 |
| 20260504220501 | 82 | 148 | 4.0 | 15.0 | 0.00 | 0.00 | 0.00 | 56 | 1006.3 |
| 20260504220013 | 82 | 189 | 5.0 | 18.0 | 0.00 | 0.00 | 0.00 | 57 | 1006.3 |
| 20260504215501 | 82 | 209 | 5.0 | 18.0 | 0.00 | 0.00 | 0.00 | 57 | 1006.4 |
| 20260504215001 | 82 | 140 | 6.0 | 18.0 | 0.00 | 0.00 | 0.00 | 56 | 1006.6 |
| 20260504214511 | 82 | 168 | 6.0 | 18.0 | 0.00 | 0.00 | 0.00 | 55 | 1006.7 |
| 20260504214001 | 82 | 175 | 7.0 | 15.0 | 0.00 | 0.00 | 0.00 | 55 | 1006.7 |
| 20260504213502 | 82 | 161 | 4.0 | 14.0 | 0.00 | 0.00 | 0.00 | 56 | 1006.9 |
| 20260504213008 | 82 | 176 | 4.0 | 11.0 | 0.00 | 0.00 | 0.00 | 57 | 1007.2 |
| 20260504211519 | 82 | 173 | 7.0 | 17.0 | 0.00 | 0.00 | 0.00 | 56 | 1007.0 |
| 20260504211002 | 82 | 171 | 6.0 | 16.0 | 0.00 | 0.00 | 0.00 | 56 | 1007.5 |
| 20260504210502 | 82 | 240 | 5.0 | 16.0 | 0.00 | 0.00 | 0.00 | 56 | 1007.5 |
| 20260504210007 | 82 | 238 | 5.0 | 15.0 | 0.00 | 0.00 | 0.00 | 56 | 1007.6 |
| 20260504205501 | 82 | 206 | 5.0 | 14.0 | 0.00 | 0.00 | 0.00 | 56 | 1007.7 |
| 20260504205001 | 82 | 209 | 5.0 | 19.0 | 0.00 | 0.00 | 0.00 | 56 | 1007.7 |
| 20260504204505 | 82 | 229 | 6.0 | 19.0 | 0.00 | 0.00 | 0.00 | 54 | 1007.8 |
| 20260504204001 | 82 | 246 | 5.0 | 15.0 | 0.00 | 0.00 | 0.00 | 56 | 1008.0 |
| 20260504203507 | 81 | 205 | 6.0 | 18.0 | 0.00 | 0.00 | 0.00 | 56 | 1008.1 |
| 20260504203007 | 82 | 215 | 6.0 | 18.0 | 0.00 | 0.00 | 0.00 | 54 | 1008.2 |
| 20260504202501 | 81 | 261 | 6.0 | 17.0 | 0.00 | 0.00 | 0.00 | 55 | 1008.1 |
| 20260504202005 | 81 | 171 | 4.0 | 15.0 | 0.00 | 0.00 | 0.00 | 55 | 1008.2 |
| 20260504201520 | 82 | 175 | 3.0 | 18.0 | 0.00 | 0.00 | 0.00 | 55 | 1008.4 |
| 20260504201001 | 81 | 174 | 4.0 | 16.0 | 0.00 | 0.00 | 0.00 | 55 | 1008.6 |
| 20260504200502 | 81 | 257 | 5.0 | 16.0 | 0.00 | 0.00 | 0.00 | 55 | 1008.8 |
| 20260504195006 | 81 | 236 | 7.0 | 13.0 | 0.00 | 0.00 | 0.00 | 54 | 1009.1 |
| 20260504194000 | 81 | 234 | 5.0 | 17.0 | 0.00 | 0.00 | 0.00 | 54 | 1009.0 |
| 20260504193500 | 81 | 190 | 4.0 | 18.0 | 0.00 | 0.00 | 0.00 | 56 | 1009.3 |
| 20260504193004 | 81 | 196 | 6.0 | 18.0 | 0.00 | 0.00 | 0.00 | 54 | 1009.3 |
| 20260504192001 | 80 | 170 | 6.0 | 17.0 | 0.00 | 0.00 | 0.00 | 55 | 1009.4 |
| 20260504191505 | 80 | 181 | 8.0 | 17.0 | 0.00 | 0.00 | 0.00 | 54 | 1009.5 |
| 20260504190005 | 79 | 195 | 3.0 | 18.0 | 0.00 | 0.00 | 0.00 | 57 | 1009.9 |
| 20260504185505 | 79 | 233 | 7.0 | 18.0 | 0.00 | 0.00 | 0.00 | 55 | 1010.0 |
| 20260504185002 | 79 | 209 | 7.0 | 18.0 | 0.00 | 0.00 | 0.00 | 55 | 1010.0 |
| 20260504184512 | 79 | 138 | 3.0 | 16.0 | 0.00 | 0.00 | 0.00 | 56 | 1010.0 |
| 20260504184001 | 79 | 219 | 6.0 | 17.0 | 0.00 | 0.00 | 0.00 | 55 | 1010.1 |
| 20260504183504 | 79 | 194 | 8.0 | 17.0 | 0.00 | 0.00 | 0.00 | 55 | 1010.1 |
| 20260504183005 | 79 | 201 | 3.0 | 17.0 | 0.00 | 0.00 | 0.00 | 57 | 1010.3 |
| 20260504182504 | 78 | 196 | 6.0 | 17.0 | 0.00 | 0.00 | 0.00 | 55 | 1010.4 |
| 20260504181002 | 78 | 226 | 5.0 | 14.0 | 0.00 | 0.00 | 0.00 | 56 | 1010.6 |
| 20260504175501 | 78 | 227 | 3.0 | 19.0 | 0.00 | 0.00 | 0.00 | 55 | 1010.8 |
| 20260504175002 | 78 | 119 | 6.0 | 19.0 | 0.00 | 0.00 | 0.00 | 55 | 1010.6 |
| 20260504174509 | 78 | 197 | 8.0 | 16.0 | 0.00 | 0.00 | 0.00 | 56 | 1010.6 |
| 20260504174002 | 78 | 164 | 5.0 | 22.0 | 0.00 | 0.00 | 0.00 | 57 | 1010.9 |
| 20260504173500 | 77 | 244 | 7.0 | 22.0 | 0.00 | 0.00 | 0.00 | 56 | 1011.1 |
| 20260504173004 | 77 | 182 | 8.0 | 15.0 | 0.00 | 0.00 | 0.00 | 56 | 1011.2 |
| 20260504172500 | 77 | 225 | 5.0 | 18.0 | 0.00 | 0.00 | 0.00 | 57 | 1011.3 |
| 20260504172001 | 76 | 217 | 8.0 | 18.0 | 0.00 | 0.00 | 0.00 | 56 | 1011.3 |
| 20260504171506 | 76 | 219 | 6.0 | 16.0 | 0.00 | 0.00 | 0.00 | 56 | 1011.4 |
| 20260504171000 | 76 | 186 | 8.0 | 16.0 | 0.00 | 0.00 | 0.00 | 56 | 1011.4 |
| 20260504170503 | 76 | 210 | 6.0 | 19.0 | 0.00 | 0.00 | 0.00 | 56 | 1011.4 |